Regional Weather Roundup
Issued by NWS Little Rock, AR

Home | Current Version | Previous Version | Text Only | Print | Product List | Glossary On
Versions: 1 2 3 4 5 6 7 8 9 10 11 12 13 14 15 16 17 18 19 20 21 22 23 24 25 26 27
000
ASUS44 KLZK 311105
RWRLZK

WEATHER ROUNDUP FOR ARKANSAS
NATIONAL WEATHER SERVICE LITTLE ROCK AR
600 AM CDT FRI OCT 31 2014

NOTE: "FAIR" INDICATES FEW OR NO CLOUDS BELOW 12,000 FEET WITH NO
SIGNIFICANT WEATHER AND/OR OBSTRUCTIONS TO VISIBILITY.

ARZ001-003-010-029-311200-
NORTHWEST ARKANSAS

CITY           SKY/WX    TMP DP  RH WIND       PRES   REMARKS
FAYETTEVILLE   CLEAR     47  40  76 N9        30.21R
FORT SMITH     CLEAR     48  41  76 W9        30.19R
HARRISON       CLEAR     48  40  73 NW9       30.17R
BENTONVILLE    CLEAR     48  37  66 N15G30    30.22R
ROGERS         CLEAR     47  39  74 N15       30.22R
SILOAM SPGS    CLEAR     46  36  66 N12G17    30.24R
HIGHFILL       CLEAR     48  40  73 N17       30.22R
SPRINGDALE     PTCLDY    48  41  76 N14G23    30.23
$$

ARZ004-005-016-311200-
NORTH CENTRAL ARKANSAS

CITY           SKY/WX    TMP DP  RH WIND       PRES   REMARKS
BATESVILLE     CLEAR     52  43  71 NW7       30.09R
FLIPPIN        CLEAR     50  37  62 NW12      30.15R
MTN HOME       CLEAR     48  40  73 VRB6      30.13R
$$

ARZ040-041-311200-
WEST CENTRAL ARKANSAS

CITY           SKY/WX    TMP DP  RH WIND       PRES   REMARKS
MENA           CLEAR     52  43  71 CALM      30.16R
MOUNT IDA      CLEAR     47  43  86 W3        30.11R
$$

ARZ009-017-025-026-028-311200-
NORTHEAST ARKANSAS

CITY           SKY/WX    TMP DP  RH WIND       PRES   REMARKS
CORNING        FAIR      48  46  93 N9        30.07R
JONESBORO      CLEAR     49  45  86 NW8       30.05R
NEWPORT        CLEAR     49  45  86 N15       30.08R
WALNUT RIDGE   CLEAR     48  43  81 N10       30.07R
BLYTHEVILLE    CLOUDY    49  47  93 N8        30.03R
$$

ARZ022-023-033-042-044-311200-
CENTRAL ARKANSAS

CITY           SKY/WX    TMP DP  RH WIND       PRES   REMARKS
LITTLE ROCK    CLEAR     54  43  66 NW12      30.08R
N LITTLE ROCK    N/A     53  45  75 NW8       30.08R
JACKSONVILLE   CLEAR     51  43  73 W5        30.09R
SEARCY         CLEAR     53  44  71 NW8       30.09R
HOT SPRINGS    CLEAR     51  42  71 N3        30.11R
RUSSELLVILLE   CLEAR     44  42  93 CALM      30.13R
$$

ARZ036-311200-
EAST ARKANSAS

CITY           SKY/WX    TMP DP  RH WIND       PRES   REMARKS
WEST MEMPHIS   CLEAR     49  48  97 NW5       30.01R
$$

ARZ050-053-066-070-073-311200-
SOUTHWEST ARKANSAS

CITY           SKY/WX    TMP DP  RH WIND       PRES   REMARKS
ARKADELPHIA    FAIR      48  46  93 W3        30.12R
CAMDEN         CLEAR     43  41  93 CALM      30.10R
TEXARKANA      CLEAR     53  43  68 NW9       30.13R
DE QUEEN       PTCLDY    41  40  96 CALM      30.13R FOG
$$

ARZ056-057-069-311200-
SOUTHEAST ARKANSAS

CITY           SKY/WX    TMP DP  RH WIND       PRES   REMARKS
PINE BLUFF     CLEAR     54  44  69 NW8       30.07R
STUTTGART      CLEAR     52  45  76 NW12      30.06R
MONTICELLO     CLEAR     53  45  74 NW6       30.05R

$$





USA.gov is the U.S. government's official web portal to all federal, state and local government web resources and services.